COSMOS 1375 DEB, 18414

Orbit data source: Space-Track

COSMOS 1375 DEB, 18414 is space debris in LEO originally from a launch on Sun, 06 Jun 1982 UTC launched from the Plesetsk Missile And Space Complex (PKMTR). Debris objects in space refer to the collection of defunct objects orbiting the Earth. Examples of debris include non-operational satellites, rocket bodies, and fragments generated from explosions, collisions, or faulty payload assembly.

Loading next visibility...
Identifier
18414, 1982-055BD
Orbit
LEO
Country
Flag of CISCIS
Related business
Manufacturer
Unknown
Mission
Spacecraft
Bus & Motor
Unknown
Mass
Unknown
Launch date (UTC)
1982-06-06 (44 years ago)
Launch vehicle
Unknown
Launch site
Plesetsk Missile And Space Complex (PKMTR)
Object type
Payload
Rocket body
Debris
Shape & HBR
Unknown shape, 0.1 m
Radar Cross Section
Small (<0.1 m²)

Expand to show TLE details & history
Last TLE update: 2 days ago

TLE from 2 days ago
0 COSMOS 1375 DEB
1 18414U 82055BD  26171.39955353  .00000156  00000-0  21985-3 0  9997
2 18414  65.8296 217.2805 0026527 259.3014 118.7792 13.82404678 45633
Epoch: 2026-06-20T09:35Z
TLE epoch observation values (Epoch: 2026-06-20T09:35:21.424Z)
Latitude
16.6896°
Longitude
172.51901°
Altitude
966.139 km
Speed
7.366 km/s
True Right ascension
14h 59m 53s
True Declination
16° 35' 52"
Sunlit
Object was in full shadow at epoch
Visualization orbit readout
Latitude
Unknown
Longitude
Unknown
Altitude
Unknown
Speed
Unknown
Apparent Right ascension
Unknown
Apparent Declination
Unknown
Sunlit
N/A
Visualization observer readout
Local Sidereal Time
23:09:06
Azimuth
Unknown
Elevation
Unknown
Doppler factor
Unknown
Orbital elements
Apogee altitude
973.332 km
Perigee altitude
934.433 km
Semi-major axis
7,332.019 km
Eccentricity
0.00265
Inclination
65.8296°
RAAN
217.2805°
Arg. of periapsis
259.3014°
True anomaly
119.0452°
Mean anomaly
118.7792°
Eccentric anomaly
118.91224°
Mean motion
3.45707 °/min
Orbital period
104.13 mins
BSTAR
0.00021985
Loading maneuver chart data...
Computing Atmospheric mass density...
Loading historical data...
Loading historical data...
Loading historical data...
Loading historical data...
Loading historical data...
Loading historical data...
Loading historical data...

Documentation

Showing up to 5 results
|